| time (UTC) | temp F | wind direction | speed knots | gust knots | rain 1hr in | rain 24hr in | rain mn in | humidity % | barometer mb |
| 20260502163714 | 71 | 148 | 0.0 | 4.3 | 0.00 | 0.00 | 0.00 | 49 | 1022.3 |
| 20260502163211 | 71 | 148 | 0.0 | 4.3 | 0.00 | 0.00 | 0.00 | 49 | 1022.3 |
| 20260502162708 | 71 | 206 | 1.7 | 4.3 | 0.00 | 0.00 | 0.00 | 50 | 1022.5 |
| 20260502162204 | 70 | 94 | 1.7 | 3.5 | 0.00 | 0.00 | 0.00 | 53 | 1022.3 |
| 20260502161702 | 71 | 296 | 0.9 | 3.5 | 0.00 | 0.00 | 0.00 | 54 | 1022.5 |
| 20260502161158 | 71 | 333 | 0.9 | 3.5 | 0.00 | 0.00 | 0.00 | 55 | 1022.3 |
| 20260502160656 | 69 | 142 | 0.0 | 5.2 | 0.00 | 0.00 | 0.00 | 59 | 1022.5 |
| 20260502160155 | 71 | 246 | 3.5 | 4.3 | 0.00 | 0.00 | 0.00 | 53 | 1022.4 |
| 20260502152109 | 70 | 19 | 1.7 | 1.7 | 0.00 | 0.00 | 0.00 | 61 | 1022.0 |
| 20260502151606 | 68 | 66 | 0.0 | 1.7 | 0.00 | 0.00 | 0.00 | 64 | 1022.0 |
| 20260502151103 | 68 | 114 | 1.7 | 2.6 | 0.00 | 0.00 | 0.00 | 63 | 1021.9 |
| 20260502150601 | 69 | 85 | 1.7 | 2.6 | 0.00 | 0.00 | 0.00 | 59 | 1021.9 |
| 20260502130445 | 53 | 8 | 0.0 | 0.9 | 0.00 | 0.00 | 0.00 | 99 | 1021.4 |
| 20260502123428 | 50 | 49 | 0.0 | 0.0 | 0.00 | 0.00 | 0.00 | 98 | 1021.0 |
| 20260502122925 | 50 | 89 | 0.0 | 0.9 | 0.00 | 0.00 | 0.00 | 98 | 1020.9 |
| 20260502122421 | 50 | 51 | 0.0 | 0.9 | 0.00 | 0.00 | 0.00 | 98 | 1020.7 |
| 20260502121920 | 49 | 51 | 0.0 | 0.0 | 0.00 | 0.00 | 0.00 | 98 | 1020.6 |
| 20260502121416 | 49 | 89 | 0.0 | 0.0 | 0.00 | 0.00 | 0.00 | 98 | 1020.4 |
| 20260502120914 | 49 | 69 | 0.0 | 0.9 | 0.00 | 0.00 | 0.00 | 97 | 1020.2 |
| 20260502120410 | 49 | 86 | 0.0 | 0.0 | 0.00 | 0.00 | 0.00 | 97 | 1019.8 |
| 20260502115815 | 48 | 76 | 0.0 | 1.7 | 0.00 | 0.00 | 0.00 | 97 | 1019.7 |
| 20260502115311 | 48 | 76 | 0.0 | 1.7 | 0.00 | 0.00 | 0.00 | 97 | 1019.7 |
| 20260502114808 | 48 | 85 | 0.0 | 1.7 | 0.00 | 0.00 | 0.00 | 97 | 1019.8 |
| 20260502114304 | 48 | 89 | 0.0 | 0.0 | 0.00 | 0.00 | 0.00 | 97 | 1019.6 |
| 20260502113802 | 48 | 89 | 0.0 | 0.0 | 0.00 | 0.00 | 0.00 | 97 | 1019.6 |
| 20260502113259 | 48 | 5 | 0.0 | 0.0 | 0.00 | 0.00 | 0.00 | 97 | 1019.7 |
| 20260502112757 | 48 | 44 | 0.0 | 0.9 | 0.00 | 0.00 | 0.00 | 97 | 1019.5 |
| 20260502112255 | 49 | 70 | 0.0 | 0.9 | 0.00 | 0.00 | 0.00 | 96 | 1019.4 |
| 20260502111751 | 49 | 89 | 0.0 | 0.9 | 0.00 | 0.00 | 0.00 | 96 | 1019.4 |
| 20260502111030 | 49 | 101 | 0.0 | 0.9 | 0.00 | 0.00 | 0.00 | 96 | 1019.3 |
| 20260502110527 | 49 | 101 | 0.0 | 0.9 | 0.00 | 0.00 | 0.00 | 96 | 1019.3 |
| 20260502110025 | 50 | 67 | 0.0 | 0.0 | 0.00 | 0.00 | 0.00 | 96 | 1019.2 |
| 20260502105522 | 50 | 55 | 0.0 | 0.9 | 0.00 | 0.00 | 0.00 | 96 | 1019.4 |
| 20260502105019 | 50 | 27 | 0.0 | 0.0 | 0.00 | 0.00 | 0.00 | 96 | 1019.2 |
| 20260502104516 | 50 | 99 | 0.0 | 0.9 | 0.00 | 0.00 | 0.00 | 96 | 1019.2 |
| 20260502104014 | 50 | 89 | 0.0 | 0.9 | 0.00 | 0.00 | 0.00 | 96 | 1019.1 |
| 20260502103511 | 50 | 77 | 0.0 | 0.0 | 0.00 | 0.00 | 0.00 | 96 | 1019.1 |
| 20260502103009 | 51 | 55 | 0.0 | 0.9 | 0.00 | 0.00 | 0.00 | 96 | 1019.1 |
| 20260502102505 | 51 | 55 | 0.0 | 0.9 | 0.00 | 0.00 | 0.00 | 96 | 1019.1 |
| 20260502102002 | 51 | 304 | 0.0 | 0.9 | 0.00 | 0.00 | 0.00 | 96 | 1019.0 |
| 20260502101500 | 51 | 55 | 0.9 | 0.9 | 0.00 | 0.00 | 0.00 | 96 | 1018.9 |
| 20260502100958 | 51 | 38 | 0.0 | 0.0 | 0.00 | 0.00 | 0.00 | 96 | 1018.8 |
| 20260502100457 | 52 | 55 | 0.0 | 0.0 | 0.00 | 0.00 | 0.00 | 96 | 1018.8 |
| 20260502091431 | 53 | 33 | 0.0 | 0.9 | 0.00 | 0.00 | 0.00 | 95 | 1018.6 |
| 20260502090928 | 53 | 66 | 0.0 | 0.0 | 0.00 | 0.00 | 0.00 | 95 | 1018.7 |
| 20260502090425 | 53 | 76 | 0.0 | 0.0 | 0.00 | 0.00 | 0.00 | 95 | 1018.6 |
| 20260502071320 | 55 | 6 | 0.0 | 0.9 | 0.00 | 0.00 | 0.00 | 98 | 1018.8 |
| 20260502070818 | 55 | 66 | 0.0 | 0.0 | 0.00 | 0.00 | 0.00 | 98 | 1019.0 |
| 20260502070315 | 55 | 22 | 0.0 | 0.0 | 0.00 | 0.00 | 0.00 | 98 | 1018.7 |
| 20260502065814 | 55 | 18 | 0.0 | 0.9 | 0.00 | 0.00 | 0.00 | 98 | 1018.8 |
| 20260502065312 | 55 | 32 | 0.0 | 0.9 | 0.00 | 0.00 | 0.00 | 98 | 1018.8 |
| 20260502064810 | 55 | 50 | 0.0 | 0.9 | 0.00 | 0.00 | 0.00 | 98 | 1018.7 |
| 20260502064307 | 55 | 32 | 0.0 | 0.9 | 0.00 | 0.00 | 0.00 | 98 | 1018.8 |
| 20260502063804 | 55 | 59 | 0.0 | 0.9 | 0.00 | 0.00 | 0.00 | 98 | 1018.8 |
| 20260502063303 | 55 | 22 | 0.0 | 0.9 | 0.00 | 0.00 | 0.00 | 98 | 1018.9 |
| 20260502062759 | 55 | 32 | 0.0 | 0.9 | 0.00 | 0.00 | 0.00 | 98 | 1018.9 |
| 20260502062257 | 55 | 43 | 0.0 | 0.9 | 0.00 | 0.00 | 0.00 | 98 | 1018.9 |
| 20260502061755 | 55 | 47 | 0.0 | 0.0 | 0.00 | 0.00 | 0.00 | 98 | 1018.9 |
| 20260502061253 | 55 | 66 | 0.0 | 0.9 | 0.00 | 0.00 | 0.00 | 97 | 1018.8 |
| 20260502060753 | 55 | 50 | 0.0 | 0.0 | 0.00 | 0.00 | 0.00 | 97 | 1018.8 |
| 20260502060249 | 55 | 38 | 0.0 | 0.0 | 0.00 | 0.00 | 0.00 | 97 | 1018.9 |
| 20260502055748 | 55 | 25 | 0.0 | 0.9 | 0.00 | 0.00 | 0.00 | 97 | 1018.9 |
| 20260502055245 | 55 | 42 | 0.0 | 0.9 | 0.00 | 0.00 | 0.00 | 97 | 1018.8 |
| 20260502054744 | 55 | 50 | 0.0 | 0.0 | 0.00 | 0.00 | 0.00 | 97 | 1018.9 |
| 20260502054241 | 55 | 44 | 0.0 | 0.9 | 0.00 | 0.00 | 0.00 | 97 | 1019.1 |
| 20260502053739 | 55 | 44 | 0.0 | 0.0 | 0.00 | 0.00 | 0.00 | 97 | 1019.1 |
| 20260502053236 | 55 | 304 | 0.0 | 0.9 | 0.00 | 0.00 | 0.00 | 97 | 1018.9 |
| 20260502052734 | 55 | 50 | 0.0 | 0.0 | 0.00 | 0.00 | 0.00 | 97 | 1018.9 |
| 20260502052231 | 55 | 64 | 0.9 | 1.7 | 0.00 | 0.00 | 0.00 | 97 | 1018.7 |
| 20260502051729 | 55 | 50 | 0.0 | 0.0 | 0.00 | 0.00 | 0.00 | 97 | 1018.8 |
| 20260502051227 | 55 | 50 | 0.0 | 0.0 | 0.00 | 0.00 | 0.00 | 97 | 1018.8 |
| 20260502050723 | 55 | 50 | 0.0 | 0.9 | 0.00 | 0.00 | 0.00 | 97 | 1018.7 |
| 20260502050220 | 55 | 290 | 0.0 | 0.9 | 0.00 | 0.00 | 0.00 | 97 | 1018.7 |
| 20260502045717 | 55 | 315 | 0.0 | 0.9 | 0.00 | 0.44 | 0.44 | 97 | 1018.6 |
| 20260502045214 | 55 | 336 | 0.0 | 0.9 | 0.00 | 0.44 | 0.44 | 97 | 1018.6 |
| 20260502044710 | 55 | 55 | 0.0 | 1.7 | 0.00 | 0.44 | 0.44 | 97 | 1018.3 |
| 20260502044207 | 55 | 5 | 0.0 | 0.9 | 0.00 | 0.44 | 0.44 | 97 | 1018.5 |
| 20260502043704 | 55 | 315 | 0.0 | 0.0 | 0.00 | 0.44 | 0.44 | 97 | 1018.5 |
| 20260502043202 | 55 | 31 | 0.0 | 0.9 | 0.00 | 0.44 | 0.44 | 97 | 1018.6 |
| 20260502042701 | 55 | 320 | 0.0 | 0.0 | 0.00 | 0.44 | 0.44 | 97 | 1018.5 |
| 20260502042159 | 55 | 50 | 0.0 | 0.0 | 0.00 | 0.44 | 0.44 | 97 | 1018.5 |
| 20260502041656 | 55 | 6 | 0.0 | 0.0 | 0.00 | 0.44 | 0.44 | 97 | 1018.3 |
| 20260502041153 | 55 | 336 | 0.0 | 0.0 | 0.00 | 0.44 | 0.44 | 97 | 1018.4 |
| 20260502040649 | 55 | 310 | 0.0 | 0.0 | 0.00 | 0.44 | 0.44 | 97 | 1018.3 |
| 20260502040147 | 55 | 5 | 0.0 | 0.0 | 0.00 | 0.44 | 0.44 | 97 | 1018.4 |
| 20260502035643 | 55 | 283 | 0.0 | 0.0 | 0.00 | 0.44 | 0.44 | 97 | 1018.2 |
| 20260502035140 | 55 | 69 | 0.0 | 0.0 | 0.00 | 0.44 | 0.44 | 97 | 1018.1 |
| 20260502034638 | 56 | 302 | 0.0 | 0.9 | 0.00 | 0.44 | 0.44 | 97 | 1018.2 |
| 20260502034136 | 55 | 22 | 0.0 | 0.0 | 0.00 | 0.44 | 0.44 | 97 | 1018.3 |
| 20260502033634 | 55 | 50 | 0.0 | 0.9 | 0.00 | 0.44 | 0.44 | 97 | 1018.1 |
| 20260502033131 | 55 | 50 | 0.0 | 1.7 | 0.00 | 0.44 | 0.44 | 97 | 1018.1 |
| 20260502032626 | 55 | 17 | 0.0 | 0.9 | 0.00 | 0.44 | 0.44 | 97 | 1018.2 |
| 20260502032124 | 55 | 99 | 0.0 | 0.9 | 0.00 | 0.44 | 0.44 | 97 | 1017.8 |
| 20260502031621 | 55 | 124 | 0.0 | 1.7 | 0.00 | 0.44 | 0.44 | 97 | 1018.0 |
| 20260502031118 | 55 | 50 | 0.0 | 0.0 | 0.00 | 0.44 | 0.44 | 97 | 1018.1 |
| 20260502030618 | 56 | 315 | 0.0 | 0.0 | 0.00 | 0.44 | 0.44 | 97 | 1018.2 |
| 20260502030115 | 55 | 352 | 0.0 | 0.9 | 0.00 | 0.44 | 0.44 | 97 | 1018.2 |
| 20260502025612 | 55 | 290 | 0.0 | 0.0 | 0.00 | 0.44 | 0.44 | 97 | 1018.0 |
| 20260502025110 | 55 | 15 | 0.0 | 1.7 | 0.02 | 0.44 | 0.44 | 96 | 1017.6 |
| 20260502024608 | 56 | 58 | 0.0 | 0.9 | 0.02 | 0.44 | 0.44 | 96 | 1017.5 |
| 20260502024106 | 56 | 89 | 0.0 | 0.0 | 0.00 | 0.44 | 0.44 | 96 | 1017.5 |
| 20260502023604 | 56 | 55 | 0.0 | 0.0 | 0.00 | 0.44 | 0.44 | 96 | 1017.6 |
| 20260502023100 | 56 | 44 | 0.0 | 0.0 | 0.00 | 0.44 | 0.44 | 96 | 1017.8 |
| 20260502022557 | 56 | 138 | 0.9 | 1.7 | 0.00 | 0.44 | 0.44 | 96 | 1018.0 |
| 20260502022055 | 56 | 46 | 1.7 | 1.7 | 0.00 | 0.44 | 0.44 | 96 | 1018.2 |
| 20260502021552 | 56 | 59 | 0.0 | 0.9 | 0.00 | 0.44 | 0.44 | 96 | 1018.4 |
| 20260502021048 | 56 | 60 | 0.0 | 0.0 | 0.00 | 0.44 | 0.44 | 96 | 1018.4 |
| 20260502020547 | 56 | 123 | 0.9 | 0.9 | 0.00 | 0.44 | 0.44 | 96 | 1018.1 |
| 20260502020043 | 56 | 130 | 0.0 | 0.0 | 0.00 | 0.44 | 0.44 | 96 | 1017.8 |
| 20260502015541 | 56 | 60 | 0.0 | 0.0 | 0.00 | 0.44 | 0.44 | 96 | 1017.6 |
| 20260502015037 | 56 | 87 | 0.9 | 1.7 | 0.00 | 0.44 | 0.44 | 96 | 1017.7 |
| 20260502014534 | 56 | 38 | 0.0 | 0.0 | 0.00 | 0.44 | 0.44 | 96 | 1017.8 |
| 20260502014031 | 56 | 113 | 0.0 | 0.0 | 0.00 | 0.44 | 0.44 | 95 | 1017.3 |
| 20260502013526 | 56 | 113 | 0.0 | 0.0 | 0.00 | 0.44 | 0.44 | 95 | 1017.3 |
| 20260502013023 | 56 | 61 | 0.0 | 0.9 | 0.00 | 0.44 | 0.44 | 95 | 1017.4 |
| 20260502012520 | 56 | 11 | 0.0 | 0.9 | 0.00 | 0.44 | 0.44 | 95 | 1017.0 |
| 20260502012018 | 56 | 57 | 0.0 | 1.7 | 0.00 | 0.44 | 0.44 | 95 | 1016.9 |
| 20260502011514 | 56 | 44 | 0.0 | 0.9 | 0.00 | 0.44 | 0.44 | 95 | 1016.8 |
| 20260502011011 | 56 | 38 | 0.0 | 1.7 | 0.00 | 0.44 | 0.44 | 94 | 1016.7 |
| 20260502010508 | 56 | 31 | 0.9 | 1.7 | 0.00 | 0.44 | 0.44 | 94 | 1017.1 |
| 20260502010004 | 56 | 282 | 0.0 | 0.9 | 0.00 | 0.44 | 0.44 | 94 | 1017.3 |
| 20260502005503 | 57 | 49 | 0.0 | 0.0 | 0.00 | 0.44 | 0.44 | 94 | 1017.2 |
| 20260502005000 | 57 | 315 | 0.0 | 0.9 | 0.00 | 0.44 | 0.44 | 94 | 1016.9 |
| 20260502004455 | 57 | 20 | 0.0 | 0.9 | 0.00 | 0.44 | 0.44 | 94 | 1016.9 |
| 20260502003952 | 57 | 32 | 0.9 | 1.7 | 0.00 | 0.44 | 0.44 | 94 | 1016.8 |
| 20260502003450 | 57 | 7 | 0.0 | 0.9 | 0.00 | 0.44 | 0.44 | 93 | 1017.1 |
| 20260502002946 | 57 | 45 | 0.0 | 0.9 | 0.00 | 0.44 | 0.44 | 93 | 1016.9 |
| 20260502002443 | 57 | 66 | 0.0 | 0.0 | 0.00 | 0.44 | 0.44 | 92 | 1017.2 |
| 20260502001941 | 57 | 44 | 0.0 | 0.0 | 0.02 | 0.44 | 0.44 | 92 | 1016.9 |
| 20260502001438 | 57 | 293 | 0.0 | 0.0 | 0.02 | 0.44 | 0.44 | 92 | 1017.0 |
| 20260502000936 | 57 | 55 | 0.0 | 0.9 | 0.00 | 0.43 | 0.43 | 92 | 1016.5 |
| 20260502000434 | 57 | 50 | 0.0 | 0.0 | 0.02 | 0.43 | 0.43 | 92 | 1016.7 |
| 20260501235929 | 57 | 129 | 0.0 | 0.0 | 0.02 | 0.43 | 0.43 | 92 | 1016.7 |
| 20260501235425 | 57 | 113 | 0.0 | 0.0 | 0.00 | 0.43 | 0.43 | 92 | 1016.6 |
| 20260501234921 | 57 | 58 | 0.0 | 0.9 | 0.00 | 0.43 | 0.43 | 91 | 1016.5 |
| 20260501234418 | 57 | 31 | 0.0 | 0.0 | 0.00 | 0.43 | 0.43 | 91 | 1016.9 |
| 20260501233917 | 57 | 322 | 0.0 | 0.0 | 0.00 | 0.43 | 0.43 | 91 | 1016.6 |
| 20260501233414 | 57 | 320 | 0.0 | 0.0 | 0.00 | 0.43 | 0.43 | 91 | 1016.6 |
| 20260501232909 | 57 | 63 | 0.0 | 0.9 | 0.02 | 0.43 | 0.43 | 91 | 1016.5 |
| 20260501232406 | 57 | 0 | 0.0 | 0.9 | 0.02 | 0.43 | 0.43 | 90 | 1016.1 |
| 20260501231904 | 57 | 44 | 0.0 | 1.7 | 0.00 | 0.42 | 0.42 | 90 | 1016.5 |
| 20260501231402 | 57 | 66 | 0.0 | 0.9 | 0.02 | 0.42 | 0.42 | 89 | 1016.5 |
| 20260501230900 | 58 | 42 | 0.0 | 1.7 | 0.02 | 0.42 | 0.42 | 88 | 1016.3 |
| 20260501230359 | 58 | 28 | 0.9 | 1.7 | 0.00 | 0.42 | 0.42 | 86 | 1016.4 |
| 20260501225855 | 58 | 53 | 1.7 | 1.7 | 0.00 | 0.42 | 0.42 | 84 | 1016.5 |
| 20260501225353 | 58 | 345 | 0.0 | 0.0 | 0.00 | 0.42 | 0.42 | 82 | 1016.8 |
| 20260501224849 | 58 | 197 | 0.9 | 1.7 | 0.00 | 0.42 | 0.42 | 81 | 1016.6 |
| 20260501224347 | 58 | 34 | 0.0 | 1.7 | 0.00 | 0.42 | 0.42 | 81 | 1016.1 |
| 20260501223842 | 59 | 129 | 0.9 | 1.7 | 0.00 | 0.42 | 0.42 | 81 | 1015.9 |
| 20260501223338 | 59 | 20 | 0.9 | 1.7 | 0.00 | 0.42 | 0.42 | 80 | 1015.9 |
| 20260501221621 | 60 | 295 | 0.9 | 3.5 | 0.00 | 0.42 | 0.42 | 79 | 1015.1 |
| 20260501221119 | 60 | 295 | 0.9 | 3.5 | 0.00 | 0.42 | 0.42 | 79 | 1015.1 |
| 20260501220616 | 60 | 260 | 0.0 | 2.6 | 0.00 | 0.42 | 0.42 | 79 | 1015.2 |
| 20260501220113 | 60 | 89 | 0.0 | 1.7 | 0.00 | 0.42 | 0.42 | 79 | 1014.8 |
| 20260501215610 | 60 | 78 | 2.6 | 3.5 | 0.00 | 0.42 | 0.42 | 78 | 1014.8 |
| 20260501215105 | 60 | 69 | 1.7 | 3.5 | 0.00 | 0.42 | 0.42 | 78 | 1015.1 |
| 20260501214600 | 60 | 0 | 0.9 | 5.2 | 0.00 | 0.42 | 0.42 | 78 | 1015.1 |
| 20260501214056 | 60 | 79 | 1.7 | 2.6 | 0.00 | 0.42 | 0.42 | 78 | 1015.2 |
| 20260501213553 | 59 | 93 | 2.6 | 3.5 | 0.00 | 0.42 | 0.42 | 80 | 1015.3 |
| 20260501213049 | 59 | 51 | 1.7 | 2.6 | 0.00 | 0.42 | 0.42 | 82 | 1015.4 |
| 20260501212546 | 58 | 85 | 0.9 | 1.7 | 0.00 | 0.42 | 0.42 | 83 | 1015.8 |
| 20260501212043 | 58 | 35 | 0.9 | 1.7 | 0.00 | 0.42 | 0.42 | 83 | 1016.0 |
| 20260501211539 | 58 | 33 | 1.7 | 1.7 | 0.00 | 0.42 | 0.42 | 82 | 1016.4 |
| 20260501211038 | 58 | 33 | 1.7 | 1.7 | 0.00 | 0.42 | 0.42 | 82 | 1016.4 |
| 20260501210533 | 58 | 59 | 1.7 | 3.5 | 0.00 | 0.42 | 0.42 | 82 | 1016.4 |
| 20260501210030 | 59 | 47 | 1.7 | 2.6 | 0.00 | 0.42 | 0.42 | 82 | 1016.4 |
| 20260501205527 | 59 | 34 | 0.9 | 1.7 | 0.00 | 0.42 | 0.42 | 81 | 1016.3 |
| 20260501205025 | 59 | 24 | 0.9 | 1.7 | 0.00 | 0.42 | 0.42 | 82 | 1016.3 |
| 20260501204520 | 59 | 53 | 0.0 | 2.6 | 0.00 | 0.42 | 0.42 | 81 | 1015.8 |
| 20260501204016 | 59 | 11 | 1.7 | 5.2 | 0.00 | 0.42 | 0.42 | 78 | 1015.8 |
| 20260501203514 | 60 | 310 | 0.9 | 2.6 | 0.00 | 0.42 | 0.42 | 81 | 1015.1 |
| 20260501203011 | 60 | 306 | 1.7 | 5.2 | 0.00 | 0.42 | 0.42 | 79 | 1015.0 |
| 20260501202508 | 60 | 76 | 1.7 | 5.2 | 0.00 | 0.42 | 0.42 | 81 | 1014.4 |
| 20260501202004 | 60 | 349 | 0.0 | 5.2 | 0.00 | 0.42 | 0.42 | 82 | 1014.2 |
| 20260501201502 | 60 | 283 | 0.9 | 4.3 | 0.00 | 0.42 | 0.42 | 85 | 1014.3 |
| 20260501200958 | 60 | 328 | 0.9 | 4.3 | 0.00 | 0.42 | 0.42 | 84 | 1014.2 |
| 20260501200455 | 60 | 197 | 0.0 | 7.0 | 0.00 | 0.42 | 0.42 | 84 | 1014.1 |
| 20260501195953 | 62 | 18 | 1.7 | 3.5 | 0.00 | 0.42 | 0.42 | 83 | 1014.2 |
| 20260501195450 | 60 | 159 | 2.6 | 5.2 | 0.00 | 0.42 | 0.42 | 85 | 1014.2 |
| 20260501194945 | 60 | 339 | 0.9 | 2.6 | 0.00 | 0.42 | 0.42 | 89 | 1014.1 |
| 20260501194441 | 60 | 350 | 0.9 | 2.6 | 0.00 | 0.42 | 0.42 | 90 | 1014.3 |
| 20260501193937 | 59 | 18 | 0.9 | 2.6 | 0.00 | 0.42 | 0.42 | 91 | 1014.6 |
| 20260501193435 | 58 | 25 | 0.0 | 3.5 | 0.00 | 0.42 | 0.42 | 93 | 1014.4 |
| 20260501192933 | 57 | 73 | 0.0 | 3.5 | 0.00 | 0.42 | 0.42 | 92 | 1014.7 |
| 20260501192430 | 57 | 94 | 0.9 | 5.2 | 0.00 | 0.42 | 0.42 | 93 | 1014.5 |
| 20260501191927 | 57 | 25 | 0.0 | 2.6 | 0.00 | 0.42 | 0.42 | 94 | 1014.7 |
| 20260501191424 | 56 | 7 | 0.9 | 2.6 | 0.00 | 0.42 | 0.42 | 94 | 1015.1 |
| 20260501190921 | 56 | 69 | 1.7 | 5.2 | 0.00 | 0.42 | 0.42 | 94 | 1015.6 |
| 20260501190417 | 56 | 35 | 1.7 | 5.2 | 0.00 | 0.42 | 0.42 | 94 | 1015.8 |
| 20260501185917 | 56 | 13 | 0.0 | 3.5 | 0.00 | 0.42 | 0.42 | 95 | 1016.1 |
| 20260501185414 | 56 | 1 | 3.5 | 3.5 | 0.00 | 0.42 | 0.42 | 95 | 1016.2 |
| 20260501184500 | 56 | 41 | 1.7 | 2.6 | 0.02 | 0.42 | 0.42 | 96 | 1016.6 |
| 20260501184000 | 56 | 41 | 1.7 | 2.6 | 0.02 | 0.42 | 0.42 | 96 | 1016.6 |
| 20260501183458 | 56 | 342 | 0.0 | 2.6 | 0.00 | 0.42 | 0.42 | 96 | 1016.6 |
| 20260501182629 | 55 | 5 | 0.0 | 2.6 | 0.02 | 0.42 | 0.42 | 96 | 1017.2 |
| 20260501182126 | 55 | 5 | 0.0 | 2.6 | 0.02 | 0.42 | 0.42 | 96 | 1017.2 |
| 20260501181623 | 55 | 32 | 0.0 | 5.2 | 0.02 | 0.42 | 0.42 | 95 | 1017.1 |
| 20260501181120 | 55 | 62 | 1.7 | 5.2 | 0.02 | 0.41 | 0.41 | 95 | 1016.8 |
| 20260501180618 | 55 | 35 | 2.6 | 4.3 | 0.02 | 0.41 | 0.41 | 95 | 1016.8 |
| 20260501180114 | 55 | 58 | 1.7 | 2.6 | 0.02 | 0.41 | 0.41 | 95 | 1016.8 |
| 20260501174633 | 55 | 76 | 0.0 | 1.7 | 0.02 | 0.40 | 0.40 | 95 | 1017.6 |
| 20260501174131 | 55 | 76 | 0.0 | 1.7 | 0.02 | 0.40 | 0.40 | 95 | 1017.6 |
| 20260501173629 | 55 | 45 | 1.7 | 3.5 | 0.00 | 0.40 | 0.40 | 95 | 1018.0 |
| 20260501173125 | 55 | 40 | 3.5 | 3.5 | 0.02 | 0.40 | 0.40 | 96 | 1017.9 |
| 20260501172621 | 55 | 147 | 0.0 | 0.0 | 0.02 | 0.40 | 0.40 | 97 | 1018.0 |
| 20260501172116 | 55 | 30 | 0.9 | 2.6 | 0.00 | 0.39 | 0.39 | 97 | 1017.7 |
| 20260501171612 | 55 | 65 | 1.7 | 2.6 | 0.02 | 0.39 | 0.39 | 97 | 1017.9 |
| 20260501171110 | 55 | 18 | 0.0 | 2.6 | 0.00 | 0.39 | 0.39 | 97 | 1018.1 |
| 20260501170607 | 55 | 18 | 0.0 | 2.6 | 0.00 | 0.39 | 0.39 | 97 | 1018.1 |